Location: ??
(35.5672°N, 139.6509°E)
Time: 11:53:37
(UTC+00:00)

ALOS - Pass Details

Date: 03 August 2024
Orbit: 671 x 673 km, 98.0° (Epoch: 09 September)

Event Time Altitude Azimuth Distance (km) Brightness Sun altitude
Rises 18:03:21 0° 0° (N) 3,032 6.2 -19.8°
Reaches altitude 10° 18:05:47 10° 350° (N) 2,113 5.2 -19.4°
Maximum altitude 18:09:50 31° 289° (WNW) 1,177 3.2 -18.7°
Enters shadow 18:10:32 30° 272° (W) 1,214 3.1 -18.6°
